Home   Weather   Bordeaux   Past weeks
Flag for France

Past Weather in Bordeaux, Aquitaine, France — Yesterday and Last 2 Weeks

Now
46 °F

Clear.


Feels Like: 44 °F
Forecast: 43 / 33 °F
Wind: 6 mph from Northwest

Location: Bordeaux / Merignac

Current Time: Jan 20, 2019 at 8:25:04 pm

Latest Report: Jan 20, 2019 at 8:00 pm


Visibility: 10 mi

Pressure: 30.04 "Hg

Humidity: 87%

Dew Point: 43 °F

Location of BordeauxLocation

Past Weather in Bordeaux — Graph

°F

Bordeaux Temperature Yesterday

Maximum temperature yesterday: 54 °F (at 2:00 pm)
Minimum temperature yesterday: 43 °F (at 3:00 am)
Average temperature yesterday: 46 °F

High & Low Weather Summary for the Past Weeks

 TemperatureHumidityPressure
High54 °F (Jan 13, 12:30 pm)100% (Jan 6, 12:00 am)30.69 "Hg (Jan 6, 12:00 am)
Low28 °F (Jan 6, 12:00 am)50% (Jan 15, 2:00 pm)29.77 "Hg (Jan 19, 9:00 pm)
Average43 °F87%30.28 "Hg
* Reported Jan 5 7:00 pm — Jan 20 7:00 pm, Bordeaux. Weather by CustomWeather, © 2019

Note: Actual official high and low records may vary slightly from our data, if they occured in-between our weather recording intervals... More about our weather records

Advertising

Bordeaux Weather History for the Previous 24 Hours

Scroll right to see more
 ConditionsComfort  
Time TempWeatherWind HumidityBarometerVisibility
7:00 pm
Sun, Jan 20
46 °FOvercast.7 mph87%30.01 "HgN/A
6:30 pm46 °FPassing clouds.6 mph87%30.01 "HgN/A
6:00 pm46 °FOvercast.5 mph93%29.98 "HgN/A
5:30 pm46 °FBroken clouds.3 mph93%29.98 "HgN/A
5:00 pm48 °FLight rain. Partly sunny.7 mph87%29.98 "HgN/A
4:30 pm48 °FCloudy.8 mph87%29.98 "HgN/A
4:00 pm48 °FBroken clouds.6 mph82%29.95 "HgN/A
3:30 pm50 °FLight rain. Mostly cloudy.8 mph82%29.95 "HgN/A
3:00 pm50 °FLight rain. Broken clouds.7 mph76%29.95 "HgN/A
2:30 pm52 °FPartly sunny.3 mph72%29.95 "HgN/A
2:00 pm50 °FOvercast.5 mph76%29.95 "HgN/A
1:30 pm50 °FMore clouds than sun.5 mph76%29.95 "HgN/A
1:00 pm48 °FOvercast.3 mph87%29.95 "HgN/A
12:30 pm48 °FMostly cloudy.6 mph82%29.95 "HgN/A
12:00 pm48 °FOvercast.3 mph82%29.95 "HgN/A
11:30 am46 °FMostly cloudy.5 mph93%29.95 "HgN/A
11:00 am45 °FOvercast.1 mph100%29.92 "HgN/A
10:30 am43 °FMostly cloudy.No wind100%29.92 "Hg4 mi
10:00 am43 °FFog.No wind93%29.89 "Hg3 mi
9:30 am41 °FFog.No wind100%29.89 "Hg2 mi
9:00 am41 °FFog.1 mph100%29.89 "Hg2 mi
8:30 am41 °FDrizzle. Fog.1 mph100%29.86 "Hg3 mi
8:00 am41 °FFog.3 mph100%29.86 "Hg3 mi
7:30 am41 °FFog.3 mph100%29.86 "Hg3 mi
7:00 am41 °FFog.No wind100%29.83 "Hg3 mi
6:30 am41 °FPartly cloudy.2 mph100%29.83 "Hg4 mi
6:00 am41 °FLight rain. Clear.No wind100%29.83 "Hg4 mi
5:30 am41 °FClear.2 mph100%29.83 "Hg4 mi
5:00 am41 °FFog.3 mph100%29.83 "Hg3 mi
4:30 am41 °FFog.2 mph100%29.83 "Hg3 mi
4:00 am41 °FFog.3 mph100%29.83 "Hg2 mi
3:30 am41 °FFog.3 mph100%29.83 "Hg2 mi
3:00 am41 °FFog.2 mph100%29.83 "Hg2 mi
2:30 am41 °FFog.6 mph100%29.80 "Hg2 mi
1:30 am41 °FLight fog.2 mph100%29.80 "Hg2 mi
1:00 am41 °FFog.2 mph100%29.80 "Hg3 mi
12:30 am43 °FClear.6 mph93%29.80 "Hg4 mi
12:00 am43 °FPartly cloudy.7 mph100%29.80 "Hg4 mi
11:30 pm
Sat, Jan 19
43 °FClear.6 mph100%29.80 "Hg4 mi
11:00 pm45 °FClear.6 mph93%29.80 "Hg4 mi
10:30 pm45 °FClear.8 mph93%29.80 "Hg5 mi
10:00 pm45 °FClear.7 mph93%29.80 "Hg10 mi
9:30 pm45 °FClear.6 mph100%29.80 "Hg6 mi
9:00 pm46 °FClear.6 mph93%29.77 "Hg6 mi
8:30 pm46 °FPartly cloudy.6 mph93%29.80 "Hg4 mi
8:00 pm46 °FMostly cloudy.5 mph93%29.80 "Hg4 mi
Weather by CustomWeather, © 2019

See weather overview

LIVE TOTAL LUNAR ECLIPSE – Watch the eclipse as it happens